When you browse on this site, cookies collect data to enhance your experience and personalize the content and advertising you see.
Visit our Privacy Policy to learn more. By continuing to use the site, you agree to this use of cookies and data.
  • In Romania
  • List of Countries
  • For 7 days
  • Water Temperature
  • Satellite Maps
  • Weather Map
  • Weather Widgets
  • user-avatar
    Login

    Hourly Weather Cvetki

    Today, 19 July, Friday

    Time Temperature Precipitation Wind Pressure Humidity
    00:00 +13°C° 0.2 mm 1 mps 734 mmHg 99%
    01:00 +14°C° 0.2 mm 1 mps 734 mmHg 99%
    02:00 +14°C° 0 mm 1 mps 735 mmHg 98%
    03:00 +14°C° 0 mm 1 mps 735 mmHg 98%
    04:00 +14°C° 0 mm 1 mps 735 mmHg 98%
    05:00 +15°C° 0 mm 1 mps 735 mmHg 98%
    06:00 +15°C° 0.3 mm 1 mps 735 mmHg 97%
    07:00 +15°C° 0.3 mm 1 mps 736 mmHg 97%
    08:00 +16°C° 0.3 mm 2 mps 736 mmHg 96%
    09:00 +16°C° 1.4 mm 2 mps 736 mmHg 95%
    10:00 +17°C° 1.4 mm 3 mps 736 mmHg 93%
    11:00 +18°C° 1.4 mm 3 mps 736 mmHg 92%
    12:00 +18°C° 1.5 mm 4 mps 736 mmHg 92%
    13:00 +18°C° 1.5 mm 4 mps 736 mmHg 92%
    14:00 +17°C° 1.5 mm 5 mps 736 mmHg 92%
    15:00 +17°C° 0.3 mm 5 mps 736 mmHg 91%
    16:00 +17°C° 0.3 mm 5 mps 737 mmHg 90%
    17:00 +17°C° 0.3 mm 5 mps 737 mmHg 89%
    18:00 +17°C° 0.3 mm 4 mps 737 mmHg 91%
    19:00 +15°C° 0.3 mm 4 mps 737 mmHg 93%
    20:00 +16°C° 0.3 mm 3 mps 737 mmHg 95%
    21:00 +14°C° 0.1 mm 3 mps 737 mmHg 96%
    22:00 +14°C° 0.1 mm 3 mps 738 mmHg 96%
    23:00 +14°C° 0.1 mm 3 mps 738 mmHg 97%

    Tomorrow, 20 July, Saturday

    Time Temperature Precipitation Wind Pressure Humidity
    00:00 +14°C° 0.1 mm 3 mps 738 mmHg 97%
    01:00 +14°C° 0.1 mm 3 mps 739 mmHg 97%
    02:00 +14°C° 0.1 mm 3 mps 739 mmHg 97%
    03:00 +14°C° 0.1 mm 3 mps 739 mmHg 97%
    04:00 +14°C° 0.1 mm 4 mps 739 mmHg 97%
    05:00 +14°C° 0.1 mm 4 mps 739 mmHg 97%
    06:00 +14°C° 0 mm 4 mps 740 mmHg 97%
    07:00 +14°C° 0 mm 4 mps 740 mmHg 96%
    08:00 +14°C° 0 mm 4 mps 740 mmHg 96%
    09:00 +15°C° 0.1 mm 4 mps 741 mmHg 94%
    10:00 +15°C° 0.1 mm 4 mps 741 mmHg 93%
    11:00 +17°C° 0.1 mm 4 mps 742 mmHg 92%
    12:00 +18°C° 0.2 mm 4 mps 742 mmHg 85%
    13:00 +19°C° 0.2 mm 4 mps 742 mmHg 78%
    14:00 +21°C° 0.2 mm 4 mps 742 mmHg 71%
    15:00 +20°C° 0.5 mm 4 mps 742 mmHg 76%
    16:00 +20°C° 0.5 mm 4 mps 742 mmHg 80%
    17:00 +20°C° 0.5 mm 4 mps 743 mmHg 84%
    18:00 +19°C° 0.2 mm 3 mps 743 mmHg 88%
    19:00 +18°C° 0.2 mm 3 mps 743 mmHg 92%
    20:00 +16°C° 0.2 mm 2 mps 743 mmHg 95%
    21:00 +16°C° 0 mm 2 mps 743 mmHg 96%
    22:00 +15°C° 0 mm 2 mps 744 mmHg 96%
    23:00 +14°C° 0 mm 2 mps 744 mmHg 97%

    Day after tomorrow, 21 July, Sunday

    Time Temperature Precipitation Wind Pressure Humidity
    00:00 +14°C° 0 mm 2 mps 744 mmHg 97%
    01:00 +14°C° 0 mm 2 mps 744 mmHg 97%
    02:00 +13°C° 0 mm 1 mps 744 mmHg 98%
    03:00 +13°C° 0 mm 1 mps 744 mmHg 98%
    04:00 +13°C° 0 mm 1 mps 745 mmHg 98%
    05:00 +13°C° 0 mm 1 mps 745 mmHg 98%
    06:00 +15°C° 0 mm 1 mps 745 mmHg 93%
    07:00 +16°C° 0 mm 1 mps 745 mmHg 88%
    08:00 +19°C° 0 mm 1 mps 745 mmHg 83%
    09:00 +19°C° 0.3 mm 2 mps 745 mmHg 77%
    10:00 +20°C° 0.3 mm 2 mps 745 mmHg 72%
    11:00 +23°C° 0.3 mm 2 mps 745 mmHg 67%
    12:00 +23°C° 0.2 mm 2 mps 745 mmHg 62%
    13:00 +24°C° 0.2 mm 2 mps 745 mmHg 58%
    14:00 +25°C° 0.2 mm 2 mps 745 mmHg 53%
    15:00 +25°C° 0.1 mm 2 mps 745 mmHg 55%
    16:00 +24°C° 0.1 mm 2 mps 745 mmHg 57%
    17:00 +24°C° 0.1 mm 2 mps 745 mmHg 60%
    18:00 +22°C° 0 mm 1 mps 745 mmHg 67%
    19:00 +20°C° 0 mm 1 mps 745 mmHg 74%
    20:00 +18°C° 0 mm 1 mps 745 mmHg 81%
    21:00 +16°C° 0 mm 1 mps 745 mmHg 83%
    22:00 +15°C° 0 mm 1 mps 745 mmHg 85%
    23:00 +13°C° 0 mm 0 mps 745 mmHg 87%

    22 July, Monday

    Time Temperature Precipitation Wind Pressure Humidity
    00:00 +13°C° 0 mm 0 mps 745 mmHg 88%
    01:00 +13°C° 0 mm 0 mps 744 mmHg 88%
    02:00 +12°C° 0 mm 0 mps 744 mmHg 88%
    03:00 +13°C° 0 mm 0 mps 744 mmHg 87%
    04:00 +13°C° 0 mm 0 mps 744 mmHg 86%
    05:00 +13°C° 0 mm 0 mps 744 mmHg 85%
    06:00 +16°C° 0 mm 1 mps 744 mmHg 77%
    07:00 +20°C° 0 mm 1 mps 744 mmHg 70%
    08:00 +22°C° 0 mm 1 mps 744 mmHg 63%
    09:00 +23°C° 0 mm 1 mps 744 mmHg 58%
    10:00 +24°C° 0 mm 1 mps 744 mmHg 53%
    11:00 +26°C° 0 mm 1 mps 744 mmHg 48%
    12:00 +26°C° 0 mm 1 mps 743 mmHg 46%
    13:00 +26°C° 0 mm 1 mps 743 mmHg 45%
    14:00 +27°C° 0 mm 1 mps 743 mmHg 43%
    15:00 +26°C° 0 mm 1 mps 743 mmHg 46%
    16:00 +26°C° 0 mm 1 mps 743 mmHg 48%
    17:00 +25°C° 0 mm 1 mps 743 mmHg 50%
    18:00 +23°C° 0 mm 1 mps 743 mmHg 59%
    19:00 +22°C° 0 mm 1 mps 742 mmHg 68%
    20:00 +19°C° 0 mm 2 mps 742 mmHg 77%
    21:00 +18°C° 0 mm 2 mps 742 mmHg 79%
    22:00 +17°C° 0 mm 2 mps 742 mmHg 82%
    23:00 +16°C° 0 mm 2 mps 742 mmHg 84%

    23 July, Tuesday

    Time Temperature Precipitation Wind Pressure Humidity
    00:00 +15°C° 0 mm 2 mps 742 mmHg 86%
    01:00 +15°C° 0 mm 1 mps 742 mmHg 87%
    02:00 +15°C° 0 mm 1 mps 742 mmHg 88%
    03:00 +15°C° 0 mm 1 mps 742 mmHg 88%
    04:00 +15°C° 0 mm 1 mps 742 mmHg 87%
    05:00 +15°C° 0 mm 1 mps 742 mmHg 86%
    06:00 +18°C° 0 mm 1 mps 742 mmHg 80%
    07:00 +19°C° 0 mm 1 mps 742 mmHg 73%
    08:00 +21°C° 0 mm 1 mps 742 mmHg 67%
    09:00 +22°C° 0 mm 1 mps 742 mmHg 62%
    10:00 +23°C° 0 mm 1 mps 743 mmHg 57%
    11:00 +24°C° 0 mm 2 mps 743 mmHg 52%
    12:00 +25°C° 0 mm 2 mps 743 mmHg 51%
    13:00 +25°C° 0 mm 2 mps 743 mmHg 50%
    14:00 +25°C° 0 mm 2 mps 743 mmHg 49%
    15:00 +25°C° 0 mm 2 mps 743 mmHg 54%
    16:00 +24°C° 0 mm 2 mps 743 mmHg 59%
    17:00 +23°C° 0 mm 2 mps 743 mmHg 63%
    18:00 +21°C° 0 mm 2 mps 743 mmHg 66%
    19:00 +20°C° 0 mm 2 mps 743 mmHg 68%
    20:00 +18°C° 0 mm 2 mps 743 mmHg 70%
    21:00 +18°C° 0 mm 2 mps 743 mmHg 69%
    22:00 +17°C° 0 mm 2 mps 744 mmHg 68%
    23:00 +17°C° 0 mm 2 mps 744 mmHg 67%

    24 July, Wednesday

    Time Temperature Precipitation Wind Pressure Humidity
    00:00 +16°C° 0 mm 2 mps 744 mmHg 70%
    01:00 +15°C° 0 mm 2 mps 744 mmHg 73%
    02:00 +15°C° 0 mm 2 mps 744 mmHg 75%
    03:00 +14°C° 0 mm 2 mps 744 mmHg 78%
    04:00 +14°C° 0 mm 2 mps 744 mmHg 81%
    05:00 +13°C° 0 mm 2 mps 744 mmHg 83%
    06:00 +15°C° 0 mm 2 mps 744 mmHg 76%
    07:00 +17°C° 0 mm 2 mps 745 mmHg 69%
    08:00 +18°C° 0 mm 3 mps 745 mmHg 62%
    09:00 +20°C° 0 mm 3 mps 745 mmHg 56%
    10:00 +21°C° 0 mm 3 mps 745 mmHg 50%
    11:00 +24°C° 0 mm 3 mps 745 mmHg 44%
    12:00 +24°C° 0 mm 3 mps 745 mmHg 44%
    13:00 +25°C° 0 mm 4 mps 745 mmHg 45%
    14:00 +25°C° 0 mm 4 mps 745 mmHg 45%
    15:00 +25°C° 0 mm 4 mps 745 mmHg 47%
    16:00 +24°C° 0 mm 3 mps 745 mmHg 50%
    17:00 +24°C° 0 mm 3 mps 745 mmHg 52%
    18:00 +21°C° 0 mm 2 mps 745 mmHg 60%
    19:00 +19°C° 0 mm 2 mps 745 mmHg 68%
    20:00 +19°C° 0 mm 1 mps 745 mmHg 76%
    21:00 +18°C° 0 mm 1 mps 745 mmHg 80%
    22:00 +16°C° 0 mm 1 mps 745 mmHg 84%
    23:00 +15°C° 0 mm 1 mps 745 mmHg 89%
    Show more